STARLINK-31558, 59196

Orbit data source: Space-Track

STARLINK-31558, 59196 is a payload satellite owned by SpaceX/Seattle (US) in LEO that was launched on Sun, 10 Mar 2024 UTC via an FALCON 9 launch vehicle from the Air Force Eastern Test Range (AFETR). Payload-class satellites include a variety of spacecraft equipped with specific instruments for various scientific and technological missions. These include communications satellites like Starlink; space stations such as the ISS; scientific satellites like the Hubble; Earth observation satellites from companies like Planet Labs, Umbra, and HawkEye 360; GPS; miniature CubeSats for education and research; and military/defense satellites.

Loading next visibility...
Identifier
59196, 2024-045U
Orbit
LEO
Country
Flag of USUS
Related business
Manufacturer
SpaceX/Seattle
Mission
Operational Commercial Communications
Bus & Motor
STARLINK V2M, Unknown motor
Mass
730 kg wet, ~700 kg dry
Launch date (UTC)
2024-03-10 (2 years ago)
Launch vehicle
FALCON 9
Launch site
Air Force Eastern Test Range (AFETR)
Object type
Payload
Rocket body
Debris
Shape & HBR
Box + 2 Pan, 17.7 m
Radar Cross Section
33.884 m², Large (>1 m²)

Expand to show TLE details & history
Last TLE update: 2 days ago

TLE from 2 days ago
0 STARLINK-31558
1 59196U 24045U   26171.46625444 -.00002247  00000-0 -72146-4 0  9998
2 59196  43.0011 231.7784 0001236 271.3129  88.7581 15.27590026128892
Epoch: 2026-06-20T11:11Z
TLE epoch observation values (Epoch: 2026-06-20T11:11:24.383Z)
Latitude
-0.00003°
Longitude
155.2463°
Altitude
482.776 km
Speed
7.626 km/s
True Right ascension
15h 27m 06s
True Declination
0° 00' 00"
Sunlit
Object was in full shadow at epoch
Visualization orbit readout
Latitude
Unknown
Longitude
Unknown
Altitude
Unknown
Speed
Unknown
Apparent Right ascension
Unknown
Apparent Declination
Unknown
Sunlit
N/A
Visualization observer readout
Local Sidereal Time
21:27:23
Azimuth
Unknown
Elevation
Unknown
Doppler factor
Unknown
Orbital elements
Apogee altitude
485.812 km
Perigee altitude
484.116 km
Semi-major axis
6,863.101 km
Eccentricity
0.00012
Inclination
43.0011°
RAAN
231.7784°
Arg. of periapsis
271.3129°
True anomaly
88.77226°
Mean anomaly
88.7581°
Eccentric anomaly
88.76518°
Mean motion
3.81736 °/min
Orbital period
94.31 mins
BSTAR
-0.000072146
Loading maneuver chart data...
Computing Atmospheric mass density...
Loading historical data...
Loading historical data...
Loading historical data...
Loading historical data...
Loading historical data...
Loading historical data...
Loading historical data...

Documentation

Showing up to 5 results
|